Regional Weather Roundup
Issued by NWS

Home | Current Version | Previous Version | Text Only | Print | Product List | Glossary On
Versions: 1 2 3 4 5 6 7 8 9 10 11 12 13 14 15 16 17 18 19 20 21 22 23 24 25 26 27 28 29 30 31 32 33 34 35 36 37 38 39 40 41 42 43 44 45 46 47 48 49 50
000
ASUS43 KDMX 310408
RWRIA

WEATHER ROUNDUP FOR IOWA
NATIONAL WEATHER SERVICE DES MOINES IA
1100 PM CDT MON MAY 30 2016

NOTE: "FAIR" INDICATES FEW OR NO CLOUDS BELOW 12,000 FEET WITH NO
SIGNIFICANT WEATHER AND/OR OBSTRUCTIONS TO VISIBILITY.

* - THESE STATIONS ARE NOT NWS STATIONS...THUS NOT UNDER NWS
QUALITY CONTROL.  THEY ALSO DO NOT REPORT WEATHER SUCH
AS PRECIPITATION OR FOG.

IAZ001>003-012>014-020>022-031>034-043>046-310500-
   NORTHWEST IOWA

CITY           SKY/WX    TMP DP  RH WIND       PRES   REMARKS
CARROLL *      CLOUDY    70  55  60 S9        29.90F
CHEROKEE *     CLOUDY    70  54  56 S16G24    29.87S
DENISON *      CLOUDY    66  59  77 S18G41    29.89R HAZE
LE MARS *      CLEAR     68  59  73 S15G21    29.86S
ORANGE CITY *  CLEAR     70  57  64 S18G26    29.85F
SHELDON *      CLEAR     68  55  64 S16G23    29.84F
SIOUX CITY     MOCLDY    71  60  68 SE12      29.86S
SPENCER        CLOUDY    70  57  63 SE14      29.89R
STORM LAKE *   MOCLDY    66  57  72 SW14G22   29.91S
$$

IAZ055>058-069>071-079>083-090>094-310500-
   SOUTHWEST IOWA

CITY           SKY/WX    TMP DP  RH WIND       PRES   REMARKS
ATLANTIC *     PTCLDY    68  61  77 S17       29.92R
AUDUBON *      CLEAR     68  57  68 S9        29.92R
CLARINDA *       N/A     68  64  88 MISG      29.95R
COUNCIL BLFS * CLEAR     66  61  82 S16G25    29.93R
CRESTON *      CLOUDY    68  63  83 S12       29.93S
HARLAN  *      PTCLDY    68  61  77 S13G21    29.95R
LAMONI         PTCLDY    65  61  87 S8        29.95F
RED OAK *      CLOUDY    66  63  88 SW7       29.94R
SHENANDOAH *   CLOUDY    68  64  88 SE7       29.94S
$$

IAZ047>049-059>061-072>074-084-310500-
   CENTRAL IOWA

CITY           SKY/WX    TMP DP  RH WIND       PRES   REMARKS
AMES           CLOUDY    65  62  90 CALM      29.93S
ANKENY *       CLEAR     73  55  53 SW5       29.92R
BOONE *          N/A     64  61  88 E5        29.94R
CHARITON *     CLEAR     66  63  88 S6        29.95R
DES MOINES     CLOUDY    72  55  55 S6        29.92R
GRINNELL*      MOCLDY    70  61  73 NW5       29.97R
KNOXVILLE *    CLEAR     68  61  77 S7        29.93S
MARSHALLTOWN   CLOUDY    66  59  78 NE13      29.95S
NEWTON *       PTCLDY    72  63  73 CALM      29.94S
PELLA *        CLOUDY    68  61  77 SE5       29.95S
PERRY *        MOCLDY    68  59  73 S8        29.92S
$$

IAZ004>006-015-016-023>025-035-036-310500-
   NORTH CENTRAL IOWA

CITY           SKY/WX    TMP DP  RH WIND       PRES   REMARKS
ALGONA *       CLOUDY    66  57  72 E13       29.94R
CLARION *      CLOUDY    66  59  77 E13       29.95F
ESTHERVILLE    MOCLDY    65  58  78 SE22      29.90R
FORT DODGE *   CLOUDY    66  55  68 E9        29.95R
MASON CITY     LGT RAIN  66  61  84 S14       30.00R
FOREST CITY *  RAIN      63  61  94 SE12      29.98R
WEBSTER CITY * CLEAR     64  61  88 SE8       29.92S
IOWA FALLS *     N/A     64  61  88 E7        29.95F
$$

IAZ007>011-017>019-026>030-037>042-050>054-066-310500-
   NORTHEAST IOWA

CITY           SKY/WX    TMP DP  RH WIND       PRES   REMARKS
CEDAR RAPIDS   PTCLDY    70  64  81 S3        29.95R
CHARLES CITY * MOCLDY    66  61  82 SE9       30.01S
CLINTON *      CLEAR     75  61  61 S5        29.97R
DECORAH *      CLOUDY    66  63  88 S9G17     29.99R
DUBUQUE        TSTM      69  61  75 SW5       29.99R
MONTICELLO *   PTCLDY    73  61  64 NE5       29.96S
OELWEIN *      LGT RAIN  63  63 100 NW15      30.01F
WATERLOO       TSTM      63  60  90 NE7       30.00F
$$

IAZ064-065-067-068-078-310500-
   EAST CENTRAL IOWA

CITY           SKY/WX    TMP DP  RH WIND       PRES   REMARKS
DAVENPORT      CLEAR     75  62  64 SW6       29.97R
IOWA CITY      PTCLDY    73  64  73 CALM      29.96R
MT. PLEASANT * CLEAR     73  66  78 SW6       29.96S
MUSCATINE *    CLEAR     72  64  78 CALM      29.95S
QUAD CITIES    CLEAR     70  61  73 CALM      29.95S
$$

IAZ062-063-075>077-085>089-095>099-310500-
   SOUTHEAST IOWA

CITY           SKY/WX    TMP DP  RH WIND       PRES   REMARKS
BURLINGTON     PTCLDY    73  67  81 W7        29.96S
FAIRFIELD *      N/A    N/A N/A N/A MISG        N/A
FORT MADISON * CLEAR     72  63  73 SW8       29.98S HAZE
KEOKUK *       CLEAR     70  61  73 SW7       29.97S
OSKALOOSA *      N/A     68  59  73 SW7       29.97R
OTTUMWA        CLEAR     69  60  73 SW9       29.96R
WASHINGTON *   CLEAR     72 -36   1 SW7       29.97R
$$

ABBREVIATIONS USED IN REMARKS
   TC - TEMPERATURES IN CELSIUS
  WCI - WIND CHILL INDEX
   HX - HEAT INDEX
  VSB - VISIBILITY
$$





USA.gov is the U.S. government's official web portal to all federal, state and local government web resources and services.